Flag for Uruguay Weather past 2 weeks in Minas, Uruguay

Now
52 °F

Clear.


Feels Like: 52 °F
Forecast: 44 / 67 °F
Wind: No wind

Location: Capitan Corbeta

Current Time: Aug 29, 2014 at 10:16:57 PM

Latest Report: Aug 29, 2014 at 9:00 PM


Visibility: 10 mi

Pressure: 30.09 "Hg

Humidity: 82%

Dew point: 46 °F

Location of MinasLocation

Historic Weather in Minas — Graph

°F

Minas temperature yesterday

Maximum temperature yesterday: 52 °F (at 1:00 PM)
Minimum temperature yesterday: 43 °F (at 8:00 PM)
Average temperature yesterday: 47 °F

Past Weeks' High & Low Weather Summary

 TemperatureHumidityPressure
High84 °F (Aug 21, 2:00 PM)100% (Aug 16, 8:00 AM)30.36 "Hg (Aug 16, 8:00 AM)
Low39 °F (Aug 15, 7:00 AM)28% (Aug 15, 3:00 PM)29.36 "Hg (Aug 25, 11:00 PM)
Average56 °F77%29.99 "Hg
* Reported Aug 14 9:00 PM — Aug 29 9:00 PM, Minas, Weather by CustomWeather, © 2014

Note: Actual official high and low records may vary slightly from our data, if they occured in-between our weather recording intervals... More about our weather records

Advertising

Minas weather history for previous 24 hours

 ConditionsComfort  
Time TempWeatherWind HumidityBarometerVisibility
9:00 PM
Aug 29
52 °FClear.No wind82%30.09 "Hg10 mi
8:00 PM50 °FClear.No wind88%30.09 "Hg10 mi
7:00 PM50 °FPassing clouds.No wind82%30.09 "HgN/A
6:00 PM54 °FPassing clouds.8 mph77%30.09 "HgN/A
4:00 PM55 °FPassing clouds.14 mph72%30.09 "HgN/A
3:00 PM57 °FPassing clouds.13 mph67%30.12 "HgN/A
2:00 PM57 °FPassing clouds.14 mph63%30.12 "HgN/A
1:00 PM63 °FPassing clouds.No wind42%30.15 "HgN/A
12:00 PM61 °FSunny.3 mph48%30.15 "Hg10 mi
10:00 AM50 °FSunny.3 mph71%30.21 "Hg10 mi
9:00 AM45 °FSunny.6 mph87%30.21 "Hg10 mi
8:00 AM41 °FSunny.5 mph93%30.18 "Hg10 mi
7:00 AM39 °FSunny.6 mph93%30.18 "Hg10 mi
6:00 AM39 °FClear.No wind93%30.18 "Hg10 mi
5:00 AM41 °FClear.5 mph87%30.18 "Hg10 mi
4:00 AM41 °FClear.3 mph87%30.18 "Hg10 mi
3:00 AM41 °FClear.5 mph87%30.21 "Hg10 mi
1:00 AM43 °FClear.5 mph87%30.24 "Hg10 mi
12:00 AM43 °FClear.5 mph87%30.21 "Hg10 mi
11:00 PM
Aug 28
45 °FClear.6 mph87%30.21 "Hg10 mi
10:00 PM43 °FClear.6 mph87%30.21 "Hg10 mi
Weather by CustomWeather, © 2014

See weather overviewHow to use our weather pages